[[{"header":{"parameterUnit":"m.s-1","parameterCategory":1,"la1":30.2991,"la2":30.254,"lo1":-89.0895,"lo2":-89.0444,"dy":0.0017,"dx":0.0017,"nx":28,"ny":28,"refTime":"2024-07-27T21:00:00:Z","depth":0,"parameterNumber":2,"parameterNumberName":"U-component_of_WINDS"},"data":[0,0,0,0,0,0,0,0,0,0,0,0,0,0,0,0,0,0,0,0,0,0,0,0,0,0,0,0,0,0,0,0,0,0,0,0,0,0,0,0,0,0,0,0,0,0,0,0,0,0,0,0,0,0,0,0,0,0,4.0647,4.0647,0,4.0701,4.0702,4.0702,4.0675,4.0673,4.0672,4.0671,4.0731,4.0734,4.0737,0,0,0,0,0,0,0,0,0,0,0,0,0,4.0525,4.0527,4.0647,4.0647,4.0648,4.0701,4.0702,4.0703,4.0675,4.0673,4.0672,4.067,4.073,4.0734,4.0737,0,0,0,0,0,0,0,0,0,0,0,0,0,4.0579,4.0528,4.0647,4.0641,4.0641,4.0701,4.0702,4.0703,4.0675,4.0673,4.0671,4.0669,4.0729,4.0733,4.0738,4.0808,0,0,4.0751,4.0753,0,0,0,0,0,0,0,0,4.0576,4.0583,4.0641,4.0641,4.0641,4.0679,4.0681,4.0738,4.0676,4.0662,4.0671,4.0668,4.0716,4.0721,4.0736,4.0811,4.0814,4.0752,4.0754,4.0756,4.0757,0,0,0,0,0,0,0,4.0572,4.0581,4.0668,4.0642,4.0642,4.0637,4.0642,4.0692,4.0701,4.0663,4.0661,4.0668,4.0716,4.0732,4.0737,4.0815,4.0751,4.0755,4.0758,4.076,4.0953,4.0955,0,0,0,0,0,0,4.0568,4.0578,4.0667,4.067,4.0602,4.0641,4.0647,4.0669,4.07,4.0703,4.067,4.0667,4.0726,4.0732,4.074,4.0825,4.0756,4.076,4.0763,4.0951,4.0954,4.0956,0,0,0,0,0,0,4.0565,4.0576,4.0664,4.0623,4.0634,4.0645,4.0671,4.0671,4.0688,4.0705,4.0707,4.0685,4.0724,4.0733,4.0792,4.0827,4.0762,4.0766,4.0948,4.0951,4.0955,4.0997,0,0,0,0,0,0,4.0562,4.0575,4.06,4.0624,4.0637,4.0714,4.0673,4.0674,4.0695,4.0691,4.0719,4.0722,4.0723,4.0785,4.0796,4.0832,4.077,4.0944,4.0949,4.0954,4.0993,4.1002,4.101,0,0,0,0,0,4.0558,4.0611,4.0602,4.0613,4.0668,4.0716,4.0723,4.0722,4.0698,4.0724,4.0736,4.0721,4.0822,4.0791,4.0803,4.0841,4.0942,4.0948,4.0953,4.0989,4.1,4.1009,0,0,0,0,0,0,4.0592,4.0614,4.0604,4.0666,4.0689,4.0711,4.0744,4.0734,4.0765,4.076,4.0759,4.0766,4.0827,4.084,4.0806,4.0913,4.0879,4.0887,4.0901,4.0912,4.092,4.0916,4.0773,0,0,0,0,0,4.0607,4.0642,4.066,4.0713,4.0725,4.0733,4.0754,4.0751,4.0775,4.0785,4.0801,4.0827,4.0864,4.0889,4.0925,4.0995,4.1002,4.1027,4.1036,4.1043,4.105,4.1089,4.1101,4.0974,4.0974,4.0974,0,0,4.0638,4.0654,4.0676,4.072,4.0738,4.0776,4.0741,4.0783,4.0812,4.0792,4.0848,4.0861,4.089,4.0955,4.0984,4.0968,4.1086,4.105,4.1055,4.1058,4.1096,4.1108,4.1119,4.0978,4.0978,4.0977,0,0,4.0713,4.0729,4.0775,4.0794,4.0821,4.0826,4.0837,4.0861,4.0869,4.0924,4.0911,4.0947,4.1011,4.1033,4.1052,4.1139,4.1127,4.1151,4.1195,4.1234,4.1244,4.1253,4.1285,4.1296,4.1158,4.1158,4.1158,0,4.0749,4.0804,4.0801,4.0844,4.0865,4.0848,4.0896,4.0915,4.0953,4.0969,4.0949,4.1031,4.1049,4.112,4.1141,4.1157,4.1171,4.1147,4.1243,4.1252,4.126,4.129,4.1302,4.1161,4.116,4.116,4.116,0,4.0847,4.0886,4.0921,4.0956,4.0981,4.1027,4.1033,4.1059,4.1055,4.1063,4.1121,4.1143,4.1183,4.12,4.1197,4.1271,4.126,4.1242,4.1208,4.1275,4.1303,4.1315,4.1165,4.1164,4.1163,4.1162,0,0,4.0944,4.0979,4.0991,4.1008,4.1038,4.1069,4.1115,4.1153,4.1176,4.1204,4.1244,4.1299,4.1283,4.1306,4.1305,4.1339,4.1408,4.1317,4.1318,4.1334,4.1493,4.1506,4.1519,4.1401,4.1403,4.1405,4.1491,0,4.1022,4.11,4.11,4.1174,4.1211,4.1197,4.1238,4.1262,4.1271,4.1306,4.1317,4.1357,4.1332,4.1346,4.1379,4.1393,4.144,4.1387,4.1439,4.1441,4.1432,4.1534,4.1548,4.1627,4.1502,4.1504,4.1505,0,4.1123,4.1153,4.123,4.1255,4.1271,4.1307,4.1343,4.1376,4.1404,4.1409,4.1434,4.1429,4.1479,4.1444,4.1513,4.1477,4.1499,4.1509,4.1512,4.1517,4.1477,4.1542,4.1653,4.1665,4.1522,4.1521,4.152,0,4.1187,4.1246,4.13,4.1315,4.1347,4.1373,4.1387,4.1413,4.1437,4.1469,4.1485,4.1523,4.1544,4.1575,4.1581,4.1555,4.1652,4.1616,4.1658,4.1658,4.1678,4.1677,4.1794,4.1693,4.1693,4.1693,4.1692,0,4.1273,4.1321,4.133,4.1363,4.1417,4.1418,4.1472,4.1485,4.1508,4.1545,4.1537,4.1572,4.1578,4.1616,4.1621,4.1679,4.1688,4.1695,4.1696,4.1695,4.1695,4.1709,4.1704,4.1696,4.1695,4.1695,4.1694,0,4.1353,4.136,4.1419,4.1444,4.1452,4.149,4.1513,4.1546,4.1555,4.1603,4.1614,4.1629,4.1673,4.1683,4.1735,4.1739,4.1807,4.1803,4.1797,4.1797,4.1838,4.1834,4.1969,4.1987,4.1874,4.1875,4.1876,0,4.1408,4.1444,4.1474,4.1497,4.1513,4.1551,4.1575,4.1578,4.1604,4.164,4.1669,4.1712,4.1746,4.1818,4.1835,4.1876,4.1872,4.1917,4.1878,4.1877,4.1873,4.1871,4.1875,4.1924,4.1925,4.1926,4.1927,0,4.1504,4.1507,4.1541,4.1577,4.1606,4.1635,4.1663,4.1683,4.1691,4.1721,4.1765,4.1791,4.1845,4.1888,4.193,4.1947,4.1939,4.1939,4.1951,4.1951,4.1946,4.1949,4.1817,4.1936,4.1935,4.1934,4.1934,4.1933,4.1573,4.1606,4.1632,4.1671,4.1692,4.1718,4.1751,4.1764,4.1801,4.1844,4.1844,4.1893,4.1923,4.1977,4.1997,4.2037,4.2023,4.204,4.2044,4.2048,4.2052,4.194,4.2044,4.2044,4.2044,4.2044,4.2043,0,4.167,4.1686,4.1722,4.1761,4.1792,4.1781,4.1812,4.1839,4.1882,4.1909,4.1943,4.1995,4.2038,4.2059,4.2101,4.2129,4.2127,4.214,4.2138,4.2143,4.2062,4.2047,4.2142,4.2142,4.2142,4.2142,4.2142,4.2142,4.1723,4.1778,4.1783,4.1849,4.1866,4.1912,4.1931,4.1956,4.1978,4.2036,4.2071,4.2084,4.211,4.2154,4.2194,4.2199,4.2215,4.2231,4.2234,4.2158,4.2148,4.2139,4.2125,4.2234,4.2234,4.2312,4.2312,4.2313]},{"header":{"parameterUnit":"m.s-1","parameterCategory":1,"la1":30.2991,"la2":30.254,"lo1":-89.0895,"lo2":-89.0444,"dy":0.0017,"dx":0.0017,"nx":28,"ny":28,"refTime":"2024-07-27T21:00:00:Z","depth":0,"parameterNumber":3,"parameterNumberName":"V-component_of_WINDS"},"data":[0,0,0,0,0,0,0,0,0,0,0,0,0,0,0,0,0,0,0,0,0,0,0,0,0,0,0,0,0,0,0,0,0,0,0,0,0,0,0,0,0,0,0,0,0,0,0,0,0,0,0,0,0,0,0,0,0,0,1.2988,1.2988,0,1.3047,1.3048,1.3049,1.3077,1.3077,1.3077,1.3077,1.3138,1.3139,1.3141,0,0,0,0,0,0,0,0,0,0,0,0,0,1.2895,1.2897,1.2988,1.2988,1.2989,1.3047,1.3048,1.3049,1.3077,1.3077,1.3077,1.3077,1.3137,1.3139,1.3141,0,0,0,0,0,0,0,0,0,0,0,0,0,1.2943,1.2897,1.2987,1.301,1.3013,1.3047,1.3048,1.3049,1.3077,1.3077,1.3077,1.3077,1.3136,1.3139,1.3141,1.3157,0,0,1.3149,1.315,0,0,0,0,0,0,0,0,1.294,1.2946,1.3006,1.3009,1.3012,1.3055,1.3038,1.3085,1.3077,1.3053,1.3077,1.3077,1.311,1.3115,1.3126,1.316,1.3162,1.3149,1.315,1.3151,1.3152,0,0,0,0,0,0,0,1.2937,1.2944,1.3011,1.3007,1.301,1.3016,1.3023,1.3047,1.3081,1.3055,1.3057,1.3064,1.3111,1.3123,1.3127,1.3163,1.3149,1.3151,1.3152,1.3153,1.3209,1.3209,0,0,0,0,0,0,1.293,1.2941,1.3009,1.3013,1.2975,1.3018,1.3026,1.3041,1.3081,1.3087,1.3064,1.3065,1.3119,1.3125,1.313,1.3148,1.3151,1.3154,1.3155,1.3209,1.3209,1.3209,0,0,0,0,0,0,1.2928,1.2936,1.3007,1.2978,1.2987,1.302,1.3037,1.3042,1.3054,1.3087,1.3093,1.307,1.3119,1.3126,1.3149,1.3151,1.3155,1.3157,1.3209,1.3209,1.3209,1.3187,0,0,0,0,0,0,1.2925,1.2935,1.2942,1.2978,1.2989,1.3026,1.3037,1.3043,1.3058,1.306,1.3095,1.31,1.312,1.3145,1.3152,1.3154,1.3159,1.3209,1.3209,1.3209,1.3188,1.3187,1.3185,0,0,0,0,0,1.2922,1.2935,1.2943,1.2951,1.2999,1.3026,1.3033,1.3055,1.3058,1.3065,1.3086,1.3099,1.315,1.3147,1.3155,1.3158,1.3209,1.3209,1.3209,1.3189,1.3187,1.3186,0,0,0,0,0,0,1.29,1.294,1.2949,1.2974,1.2996,1.3031,1.3041,1.3053,1.3075,1.3076,1.3103,1.311,1.313,1.3147,1.3143,1.3174,1.318,1.3182,1.3162,1.3161,1.316,1.3155,1.3161,0,0,0,0,0,1.2898,1.2918,1.2951,1.297,1.2981,1.3008,1.3022,1.3036,1.3061,1.3071,1.3093,1.3116,1.3136,1.315,1.3171,1.319,1.3197,1.3196,1.3195,1.3193,1.3194,1.3203,1.3202,1.3209,1.3209,1.3209,0,0,1.2894,1.2918,1.293,1.2966,1.2985,1.3004,1.3017,1.3037,1.305,1.3074,1.3096,1.3113,1.314,1.316,1.317,1.3175,1.3193,1.3194,1.3192,1.3194,1.3203,1.3202,1.3201,1.3209,1.3209,1.3209,0,0,1.2897,1.2918,1.2934,1.2952,1.298,1.2998,1.3002,1.3034,1.3046,1.3069,1.3086,1.3102,1.3138,1.3155,1.3169,1.3173,1.3185,1.3179,1.3172,1.318,1.3179,1.3179,1.3178,1.3178,1.318,1.318,1.318,0,1.2889,1.2918,1.2941,1.2959,1.2973,1.2994,1.3009,1.3026,1.306,1.3068,1.3072,1.3115,1.3135,1.3158,1.3159,1.317,1.3173,1.3175,1.3177,1.3177,1.3177,1.3177,1.3177,1.3179,1.3179,1.3179,1.3179,0,1.2905,1.2925,1.2934,1.2965,1.298,1.2997,1.3021,1.3033,1.3046,1.3063,1.3084,1.3107,1.3132,1.3139,1.3152,1.3163,1.3164,1.3173,1.318,1.3175,1.3175,1.3175,1.3177,1.3177,1.3178,1.3178,0,0,1.2898,1.2938,1.2941,1.2954,1.2985,1.3,1.3016,1.304,1.3049,1.307,1.3083,1.3111,1.3118,1.3133,1.3148,1.3155,1.3153,1.3162,1.3163,1.3158,1.3164,1.3156,1.3156,1.3161,1.3162,1.3162,1.3161,0,1.2904,1.2934,1.2953,1.2975,1.2992,1.301,1.3023,1.3043,1.3058,1.3074,1.309,1.3109,1.3118,1.3126,1.3134,1.3152,1.3155,1.3152,1.3172,1.3173,1.3164,1.3157,1.315,1.3148,1.3161,1.3161,1.3161,0,1.2915,1.2934,1.2958,1.2983,1.2991,1.3003,1.3024,1.3039,1.3061,1.3071,1.3086,1.31,1.3116,1.3121,1.3142,1.314,1.3149,1.3158,1.3159,1.3161,1.3166,1.3157,1.3149,1.3148,1.3162,1.3162,1.3162,0,1.2905,1.2937,1.2954,1.2965,1.2995,1.3003,1.3016,1.3037,1.3049,1.3067,1.3074,1.3094,1.3105,1.3119,1.3138,1.314,1.3155,1.3163,1.3163,1.3162,1.3166,1.3165,1.3157,1.3173,1.3173,1.3173,1.3173,0,1.2909,1.2922,1.2949,1.296,1.2974,1.2995,1.3008,1.3022,1.304,1.3053,1.307,1.3081,1.3105,1.3118,1.3133,1.3146,1.3151,1.3159,1.3162,1.3157,1.3156,1.3163,1.3163,1.3173,1.3173,1.3173,1.3173,0,1.29,1.292,1.2939,1.2965,1.2972,1.2981,1.3003,1.3013,1.3028,1.3043,1.3048,1.3071,1.3087,1.3107,1.313,1.314,1.3151,1.3157,1.3144,1.3146,1.3144,1.3143,1.3139,1.3139,1.3156,1.3156,1.3156,0,1.2901,1.2912,1.2938,1.2947,1.2959,1.2974,1.2985,1.3005,1.3016,1.3038,1.3045,1.3062,1.3077,1.3102,1.3121,1.3137,1.3143,1.314,1.3146,1.3139,1.3141,1.314,1.314,1.3139,1.3139,1.3139,1.3138,0,1.29,1.2908,1.2924,1.2941,1.2954,1.2969,1.2985,1.2991,1.3014,1.3025,1.3041,1.3052,1.3074,1.3091,1.3109,1.3122,1.3133,1.3136,1.3137,1.3131,1.3122,1.3125,1.3139,1.3136,1.3137,1.3137,1.3137,1.3137,1.2896,1.2904,1.2923,1.2939,1.2952,1.2965,1.2975,1.299,1.3004,1.3023,1.3033,1.3049,1.3066,1.3092,1.3103,1.3115,1.3119,1.3121,1.3121,1.312,1.3118,1.312,1.3118,1.3119,1.3119,1.3119,1.3119,0,1.2894,1.2906,1.292,1.294,1.2952,1.2961,1.2978,1.2986,1.3,1.3015,1.3028,1.3045,1.306,1.3078,1.3094,1.31,1.3105,1.3103,1.3102,1.3104,1.3114,1.3111,1.3098,1.3098,1.3098,1.3098,1.3098,1.3098,1.2894,1.2908,1.2918,1.2937,1.2949,1.2964,1.2972,1.2984,1.2996,1.3014,1.3026,1.3037,1.3053,1.3069,1.3082,1.3087,1.3091,1.3087,1.3094,1.3102,1.3104,1.3106,1.3103,1.3089,1.3089,1.3083,1.3083,1.3083]}]]